Flag for Germany

Past Weather in Lüneburg, Lower Saxony, Germany — Yesterday and Last 2 Weeks

Now
59 °F

Passing clouds.


Feels Like: 58 °F
Forecast: 71 / 51 °F
Wind: 6 mph from Northwest

Location: Fassberg

Current Time: Aug 3, 2020 at 11:15:52 pm

Latest Report: Aug 3, 2020 at 10:20 pm


Visibility: N/A

Pressure: 29.89 "Hg

Humidity: 72%

Dew Point: 50 °F

Location of LüneburgLocation

Past Weather in Lüneburg — Graph

°F

Lüneburg Temperature Yesterday

Maximum temperature yesterday: 75 °F (at 4:20 pm)
Minimum temperature yesterday: 61 °F (at 11:20 pm)
Average temperature yesterday: 67 °F

High & Low Weather Summary for the Past Weeks

 TemperatureHumidityPressure
High84 °F (Aug 1, 12:20 pm)100% (Jul 26, 1:20 am)30.21 "Hg (Jul 26, 1:20 am)
Low41 °F (Jul 22, 5:20 am)35% (Jul 23, 3:20 pm)29.68 "Hg (Jul 28, 3:20 am)
Average64 °F67%29.98 "Hg
* Reported Jul 19 9:20 pm — Aug 3 9:20 pm, Lüneburg. Weather by CustomWeather, © 2020

Note: Actual official high and low records may vary slightly from our data, if they occured in-between our weather recording intervals... More about our weather records

Lüneburg Weather History for the Previous 24 Hours

Scroll right to see more
 ConditionsComfort  
Time TempWeatherWind HumidityBarometerVisibility
9:20 pm
Mon, Aug 3
63 °FPassing clouds.5 mph64%29.89 "HgN/A
8:20 pm66 °FBroken clouds.7 mph52%29.89 "HgN/A
7:20 pm68 °FBroken clouds.9 mph49%29.86 "HgN/A
6:20 pm68 °FScattered clouds.12 mph49%29.86 "HgN/A
5:20 pm68 °FScattered clouds.8 mph49%29.86 "HgN/A
4:20 pm70 °FScattered clouds.13 mph46%29.86 "HgN/A
3:20 pm70 °FScattered clouds.8 mph43%29.89 "HgN/A
2:20 pm72 °FScattered clouds.6 mph38%29.89 "HgN/A
1:20 pm68 °FScattered clouds.9 mph46%29.89 "HgN/A
12:20 pm68 °FScattered clouds.6 mph46%29.92 "HgN/A
11:20 am68 °FScattered clouds.6 mph49%29.92 "HgN/A
10:20 am64 °FBroken clouds.6 mph64%29.95 "HgN/A
9:20 am61 °FBroken clouds.6 mph77%29.95 "HgN/A
8:20 am57 °FPartly sunny.5 mph88%29.95 "HgN/A
7:20 am52 °FScattered clouds.2 mph94%29.95 "HgN/A
6:20 am46 °FPartly sunny.No wind100%29.95 "Hg6 mi
5:20 am48 °FPassing clouds.1 mph100%29.95 "Hg6 mi
4:20 am50 °FFog.2 mph94%29.95 "HgN/A
3:20 am52 °FPassing clouds.2 mph94%29.95 "HgN/A
2:20 am54 °FPassing clouds.2 mph88%29.95 "HgN/A
1:20 am57 °FPassing clouds.3 mph82%29.95 "HgN/A
12:20 am59 °FPassing clouds.3 mph77%29.95 "HgN/A
11:20 pm
Sun, Aug 2
61 °FPassing clouds.6 mph72%29.95 "HgN/A
Weather by CustomWeather, © 2020

See weather overview